Regional Weather Roundup
Issued by NWS

Home | Current Version | Previous Version | Text Only | Print | Product List | Glossary Off
Versions: 1 2 3 4 5 6 7 8 9 10 11 12 13 14 15 16 17 18 19 20 21 22 23 24 25 26 27 28 29 30 31 32 33 34 35 36 37 38 39 40 41 42 43 44 45 46 47 48 49 50

000
ASUS44 KMEG 270510
RWRTN
TENNESSEE HOURLY STATE WEATHER ROUNDUP
NATIONAL WEATHER SERVICE MEMPHIS TN
1200 AM CDT FRI MAY 27 2016

TNZ002-004-019-021-049-052-054-088>092-270600-
WEST TENNESSEE

CITY           SKY/WX    TMP DP  RH WIND       PRES   REMARKS
MEMPHIS INTL   CLOUDY    71  67  87 NE7       29.94F
NWS MEMPHIS      N/A     68 N/A N/A MISG        N/A
JACKSON        CLOUDY    68  66  93 E5        29.98F
DYERSBURG      CLOUDY    66  64  94 CALM      29.98F
UNION CITY     CLEAR     66  66 100 CALM      29.96F
PARIS          CLEAR     64  63  94 S5        29.97F
LEXINGTON      PTCLDY    66  66 100 CALM      29.99F
$$

TNZ008-025-027-028-033-062-065-066-270600-
NORTH MIDDLE TENNESSEE

CITY           SKY/WX    TMP DP  RH WIND       PRES   REMARKS
NASHVILLE      MOCLDY    70  62  76 CALM      30.00F
CLARKSVILLE    CLOUDY    67  64  90 S3        29.99S
SMYRNA         CLOUDY    69  65  87 S6        30.01F
COOKEVILLE     CLEAR     68  63  83 S3        30.04F
CROSSVILLE     CLEAR     69  61  75 S5        30.11S
$$

TNZ061-075-076-078-094-096-097-270600-
SOUTH MIDDLE TENNESSEE

CITY           SKY/WX    TMP DP  RH WIND       PRES   REMARKS
FAYETTEVILLE   PTCLDY    75  61  60 S8        30.05S
TULLAHOMA      CLEAR     66  64  94 CALM      30.06F
WINCHESTER     CLEAR     68  61  77 CALM      30.06S
MCMINNVILLE    CLEAR     66  66 100 CALM      30.05F
COLUMBIA       CLEAR    N/A N/A N/A CALM      30.01F
SHELBYVILLE    CLEAR     70  64  83 S3        30.04F
$$

TNZ017-018-042-046-047-270600-
NORTHEAST TENNESSEE

CITY           SKY/WX    TMP DP  RH WIND       PRES   REMARKS
TRI CITIES     CLEAR     61  60  97 NE3       30.14R
$$

TNZ012-013-036-069-073-074-270600-
CENTRAL EAST TENNESSEE

CITY           SKY/WX    TMP DP  RH WIND       PRES   REMARKS
KNOXVILLE      CLEAR     69  64  84 NE5       30.07S
OAK RIDGE      CLOUDY    67  63  87 CALM      30.09S
GATLINBURG     CLEAR     64  63  94 CALM      30.08S
$$

TNZ083-085-099-270600-
SOUTHEAST TENNESSEE

CITY           SKY/WX    TMP DP  RH WIND       PRES   REMARKS
CHATTANOOGA    CLEAR     73  63  70 CALM      30.06S
$$

SKY/WX REPORTED AS FAIR MEANS FEW OR NO CLOUDS BELOW
12 THOUSAND FEET.




USA.gov is the U.S. government's official web portal to all federal, state and local government web resources and services.